Regional Weather Roundup
Issued by NWS

Home | Current Version | Previous Version | Graphics & Text | Print | Product List | Glossary On
Versions: 1 2 3 4 5 6 7 8 9 10 11 12 13 14 15 16 17 18 19 20 21 22 23 24 25 26 27 28 29 30 31 32 33 34 35 36 37 38 39 40 41 42 43 44 45 46 47 48 49 50
000
ASUS43 KMPX 020010
RWRMN
WEATHER ROUNDUP FOR MINNESOTA
NATIONAL WEATHER SERVICE TWIN CITIES/CHANHASSEN MN
700 PM CDT TUE SEP 01 2015


NOTE: "FAIR" INDICATES FEW OR NO CLOUDS BELOW 12,000 FEET WITH NO
SIGNIFICANT WEATHER AND/OR OBSTRUCTIONS TO VISIBILITY. N/A MEANS
CURRENT SKY AND/OR WEATHER CONDITIONS ARE NOT AVAILABLE.

MNZ060>063-068>070-020100-
   Twin Cities Metro

CITY           SKY/WX    TMP DP  RH WIND       PRES   REMARKS
TWIN CITIES    MOCLDY    86  73  65 S9        29.89R HX  93
6HR MIN TEMP:  83; 6HR MAX TEMP:  86;

ST PAUL        MOCLDY    83  75  77 SE3       29.88S HX  90
CRYSTAL        CLOUDY    85  73  67 CALM      29.88R HX  91
BLAINE         MOCLDY    82  75  78 NE5       29.89S
LAKEVILLE      MOCLDY    81  73  78 CALM      29.90R
EDEN PRAIRIE   MOCLDY    84  74  71 S9        29.88R HX  91
6HR MIN TEMP:  83; 6HR MAX TEMP:  86;

SOUTH ST PAUL  MOCLDY    85  74  69 S6        29.89R HX  92
LAKE ELMO      FAIR      82  77  83 E3        29.90S HX  91
$$
MNZ001>005-007-008-013>017-022>024-027-028-020100-
   Northwest Minnesota

CITY           SKY/WX    TMP DP  RH WIND       PRES   REMARKS
BEMIDJI        PTCLDY    79  52  38 SE7       29.89S
HALLOCK        SUNNY     82  54  36 S7        29.81S
ROSEAU         CLEAR     81  63  54 S5        29.85S
WARROAD        CLEAR     81  63  54 CALM      29.86S
THIEF RVR FALL SUNNY     81  55  41 SE5       29.85S
CROOKSTON      SUNNY     82  55  39 SE6       29.83S
FOSSTON        PTCLDY    84  48  28 CALM      29.87S
DETROIT LAKES  PTCLDY    81  55  41 SE10      29.88S
MOORHEAD       MOSUNNY   82  57  42 SE7       29.84R
PARK RAPIDS    MOCLDY    82  57  42 E7        29.88F
MAHNOMEN       FAIR      81  58  46 SE6       29.86S
$$
MNZ006-009>011-018-025>026-020100-
   North Central Minnesota

CITY           SKY/WX    TMP DP  RH WIND       PRES   REMARKS
BAUDETTE       CLEAR     77  56  48 S6        29.87S
FLAG ISLAND    CLEAR     73  64  73 S7        29.84S
INTL FALLS     CLEAR     77  56  48 SE3       29.89S
6HR MIN TEMP:  77; 6HR MAX TEMP:  82;

WASKISH        CLEAR     75  64  69 CALM      29.88F
BIG FORK       PTCLDY    75  63  64 CALM      29.91F
LONGVILLE      MOCLDY    75  68  78 CALM      29.91R
GRAND RAPIDS     N/A     73  64  73 CALM      29.92S
CRANE LAKE     CLEAR     70  61  73 S1        29.93R
ORR            PTCLDY    73  57  56 CALM      29.90R
COOK           PTCLDY    72  61  68 CALM      29.92S
WALKER         FAIR      73  59  61 E3        29.90S
$$
MNZ012-019>021-037-020100-
   Northeast Minnesota

CITY           SKY/WX    TMP DP  RH WIND       PRES   REMARKS
DULUTH         MOCLDY    79  68  69 SW6       29.92S
6HR MIN TEMP:  79; 6HR MAX TEMP:  85;

ELY            PTCLDY    75  52  43 CALM      29.94R
HIBBING        MOCLDY    75  63  66 CALM      29.92S
EVELETH        MOCLDY    72  64  78 CALM      29.93S
DULUTH HARBOR  PTCLDY    70  66  88 NE3       29.89S
TWO HARBORS    PTCLDY    79  73  83 CALM      29.89S
SILVER BAY     PTCLDY    77  70  78 CALM      29.89S
GRAND MARAIS     N/A     61  60  97 SW6       29.89R
G MARAIS ARPRT CLEAR     70  54  56 CALM      29.96R
$$
MNZ029>031-032-039>041-046>048-054>057-064-020100-
   West Central Minnesota

CITY           SKY/WX    TMP DP  RH WIND       PRES   REMARKS
FERGUS FALLS   PTSUNNY   81  72  74 S12G17    29.85R
WHEATON        CLOUDY    77  70  78 SE13      29.86S
MORRIS         CLOUDY    79  72  78 S7        29.88R
ALEXANDRIA     CLOUDY    78  72  81 S5        29.91R
ELBOW LAKE     FAIR      78  73  82 SE10      29.87R
WADENA         MOCLDY    79  64  61 SE7       29.89S
GLENWOOD       CLOUDY    75  72  88 SW6       29.90R
APPLETON       CLOUDY    79  72  78 SE10      29.86F
BENSON         CLOUDY    75  70  83 W6        29.89R
ORTONVILLE     CLOUDY    79  72  78 SE5       29.86F
MADISON        CLOUDY    77  72  83 E8        29.85F
WILLMAR        DRIZZLE   75  66  73 SE13      29.85F
$$
MNZ033>034-036-042>043-049>051-058-059-020100-
   Central Minnesota

CITY           SKY/WX    TMP DP  RH WIND       PRES   REMARKS
ST CLOUD       CLOUDY    79  73  82 SW6       29.91R
6HR MIN TEMP:  79; 6HR MAX TEMP:  85;

SAUK CENTRE    FAIR      76  72  86 SE10G20   29.88S
PAYNESVILLE    DRIZZLE   76  68  75 E13       29.88F
AITKIN         MOCLDY    79  70  73 CALM      29.90R
PINE RIVER     CLOUDY    77  66  69 E3        29.93S
BRAINERD       CLOUDY    76  62  62 CALM      29.90S
STAPLES        CLOUDY    79  64  61 CALM      29.89S
LONG PRAIRIE   FAIR      75  70  83 CALM      29.89F
LITTLE FALLS   CLOUDY    79  70  73 SE3       29.90R
LITCHFIELD     LGT RAIN  79  75  89 NW5       29.92R
BUFFALO        CLOUDY    81  73  76 CALM      29.91R
MAPLE LAKE     CLOUDY    79  75  87 CALM      29.91R
$$
MNZ037-044-045-052-053-020100-
   East Central Minnesota

CITY           SKY/WX    TMP DP  RH WIND       PRES   REMARKS
PRINCETON      CLOUDY    81  73  78 CALM      29.90S
MORA           CLOUDY    77  70  78 CALM      29.91F
CAMBRIDGE      CLOUDY    82  70  65 CALM      29.89S
RUSH CITY      CLOUDY    79  73  81 CALM      29.91R
MOOSE LAKE     MOCLDY    77  72  83 CALM      29.89S
HINCKLEY       FAIR      81  73  78 CALM      29.91S
CLOQUET        MOCLDY    79  66  65 CALM      29.91F
MCGREGOR       MOCLDY    79  68  69 CALM      29.92R
$$
MNZ071>073-080-081-089-090-097-098-020100-
   Southwest Minnesota

CITY           SKY/WX    TMP DP  RH WIND       PRES   REMARKS
MONTEVIDEO     LGT RAIN  75  72  88 CALM      29.91R
GRANITE FALLS  LGT RAIN  75  74  95 CALM      29.90S
CANBY          CLOUDY    76  71  84 S12       29.89S
MARSHALL       CLOUDY    75  72  88 SE6       29.89F
REDWOOD FALLS  LGT RAIN  80  73  79 CALM      29.88R
OLIVIA         CLOUDY    73  70  88 SE3       29.89R
PIPESTONE      CLOUDY    75  72  88 CALM      29.91S
WINDOM         CLOUDY    79  72  78 CALM      29.90S
WORTHINGTON    MOCLDY    79  68  69 S13       29.90S
JACKSON        MOCLDY    81  72  74 S10       29.92S
TRACY          CLOUDY    77  74  89 CALM      29.90F
SLAYTON        MOCLDY    77  72  83 CALM      29.92R
$$
MNZ065>067-074>077-082>085-091>093-020100-
   South Central Minnesota

CITY           SKY/WX    TMP DP  RH WIND       PRES   REMARKS
MANKATO        MOCLDY    81  72  74 S6        29.90S
NEW ULM        MOCLDY    81  72  74 CALM      29.89R
ST JAMES       MOCLDY    81  73  78 SE6       29.90S
FAIRMONT       MOCLDY    81  70  69 S7        29.91S
GLENCOE        MOCLDY    82  76  82 CALM      29.90R
FARIBAULT      MOCLDY    81  73  78 S3        29.92S
OWATONNA       CLOUDY    81  72  74 S5        29.92S
WASECA         CLOUDY    79  72  78 S6        29.93R
ALBERT LEA     MOCLDY    82  72  69 S7        29.94R
$$
MNZ078>079-086>088-094>096-020100-
   Southeast Minnesota

CITY           SKY/WX    TMP DP  RH WIND       PRES   REMARKS
ROCHESTER      MOCLDY    78  74  87 S7        29.95R
6HR MIN TEMP:  78; 6HR MAX TEMP:  85;

RED WING       MOCLDY    84  72  65 SW6       29.89R
STANTON        MOCLDY    82  72  70 S6        29.90R
DODGE CENTER   MOCLDY    79  73  83 CALM      29.94S
WINONA         MOCLDY    82  70  65 SW5       29.92S
AUSTIN         MOCLDY    81  72  74 SW7       29.94R
PRESTON        MOCLDY    80  72  78 S5        29.95S
$$
ABBREVIATIONS USED IN REMARKS
   TC - TEMPERATURES IN CELSIUS
  WCI - WIND CHILL INDEX
   HX - HEAT INDEX
  VSB - VISIBILITY
$$



USA.gov is the U.S. government's official web portal to all federal, state and local government web resources and services.